User: anonymous   Login
Location: Unspecified
(0.0000°N, 0.0000°E)
Time: 00:49:14
(UTC+00:00)
Language:

IRIDIUM 114 - Orbit

View from above orbital plane
View from above orbital plane
View from above satellite
View from above satellite

Ground track
Ground track

The orbit is defined by the following mean orbital elements,

1 41923U          26145.61099839 +.00000000 +00000-0 +13006-4 0 00009
2 41923  86.3950  97.9022 0002464  86.4405 273.7072 14.34218002    07
Epoch (UTC): 25 May 2026 14:39:50
Eccentricity: 0.0002464
inclination: 86.3950°
perigee height: 776 km
apogee height: 779 km
right ascension of ascending node: 97.9022°
argument of perigee: 86.4405°
revolutions per day: 14.34218002
mean anomaly at epoch: 273.7072°

The dashed part of the orbit path shows where the satellite is in the earth's shadow,  

DLR